| time (UTC) | temp F | wind direction | speed MPH | gust MPH | rain 1hr in | rain 24hr in | rain mn in | humidity % | barometer mb |
| 20260506050624 | 42 | 247 | 2.0 | 9.0 | 0.00 | 0.02 | 0.02 | 85 | 1001.1 |
| 20260506044824 | 42 | 0 | 0.0 | 7.0 | 0.00 | 0.02 | 0.02 | 86 | 1000.9 |
| 20260506043924 | 42 | 275 | 1.0 | 13.0 | 0.00 | 0.02 | 0.02 | 86 | 1000.8 |
| 20260506042124 | 43 | 267 | 3.0 | 14.0 | 0.00 | 0.02 | 0.02 | 84 | 1000.7 |
| 20260506041224 | 43 | 249 | 6.0 | 19.0 | 0.00 | 0.02 | 0.02 | 82 | 1000.9 |
| 20260506040324 | 44 | 247 | 2.0 | 16.0 | 0.00 | 0.02 | 0.02 | 80 | 1000.9 |
| 20260506035424 | 44 | 245 | 3.0 | 14.0 | 0.00 | 0.02 | 0.02 | 78 | 1000.8 |
| 20260506034524 | 45 | 251 | 6.0 | 19.0 | 0.00 | 0.02 | 0.02 | 76 | 1000.7 |
| 20260506032724 | 46 | 242 | 4.0 | 16.0 | 0.00 | 0.02 | 0.02 | 74 | 1000.6 |
| 20260506031824 | 47 | 246 | 8.0 | 20.0 | 0.00 | 0.02 | 0.02 | 72 | 1000.3 |
| 20260506030026 | 48 | 246 | 6.0 | 19.0 | 0.00 | 0.02 | 0.02 | 71 | 999.9 |
| 20260506024225 | 49 | 232 | 7.0 | 21.0 | 0.00 | 0.02 | 0.02 | 72 | 999.7 |
| 20260506023324 | 49 | 240 | 6.0 | 17.0 | 0.00 | 0.02 | 0.02 | 70 | 999.5 |
| 20260506022424 | 50 | 243 | 7.0 | 18.0 | 0.00 | 0.02 | 0.02 | 70 | 999.4 |
| 20260506021524 | 50 | 244 | 7.0 | 16.0 | 0.00 | 0.02 | 0.02 | 68 | 999.3 |
| 20260506020624 | 50 | 242 | 6.0 | 16.0 | 0.00 | 0.02 | 0.02 | 67 | 999.2 |
| 20260506015724 | 50 | 245 | 5.0 | 15.0 | 0.00 | 0.02 | 0.02 | 69 | 999.0 |
| 20260506014824 | 50 | 252 | 5.0 | 17.0 | 0.00 | 0.02 | 0.02 | 70 | 999.0 |
| 20260506013924 | 51 | 248 | 6.0 | 17.0 | 0.00 | 0.02 | 0.02 | 70 | 998.9 |
| 20260506013024 | 51 | 248 | 6.0 | 17.0 | 0.00 | 0.02 | 0.02 | 70 | 998.7 |
| 20260506012124 | 51 | 243 | 4.0 | 17.0 | 0.00 | 0.02 | 0.02 | 71 | 998.6 |
| 20260506011224 | 50 | 236 | 3.0 | 14.0 | 0.00 | 0.02 | 0.02 | 73 | 998.6 |
| 20260506010324 | 50 | 252 | 3.0 | 14.0 | 0.00 | 0.02 | 0.02 | 72 | 998.7 |
| 20260506005424 | 50 | 252 | 6.0 | 17.0 | 0.00 | 0.02 | 0.02 | 71 | 998.7 |
| 20260506003624 | 51 | 256 | 4.0 | 19.0 | 0.00 | 0.02 | 0.02 | 71 | 998.5 |
| 20260506002724 | 51 | 254 | 6.0 | 19.0 | 0.00 | 0.02 | 0.02 | 73 | 998.5 |
| 20260506001824 | 51 | 251 | 7.0 | 17.0 | 0.00 | 0.02 | 0.02 | 73 | 998.6 |
| 20260506000924 | 51 | 249 | 6.0 | 20.0 | 0.00 | 0.02 | 0.02 | 72 | 998.4 |
| 20260505235124 | 51 | 237 | 6.0 | 19.0 | 0.00 | 0.02 | 0.02 | 73 | 998.2 |
| 20260505234224 | 51 | 248 | 6.0 | 19.0 | 0.00 | 0.02 | 0.02 | 72 | 998.2 |
| 20260505233324 | 51 | 248 | 7.0 | 20.0 | 0.00 | 0.02 | 0.02 | 72 | 998.1 |
| 20260505231524 | 51 | 250 | 5.0 | 15.0 | 0.00 | 0.02 | 0.02 | 73 | 998.0 |
| 20260505230624 | 51 | 250 | 7.0 | 19.0 | 0.00 | 0.02 | 0.02 | 72 | 998.0 |
| 20260505225724 | 51 | 253 | 5.0 | 14.0 | 0.00 | 0.02 | 0.02 | 73 | 998.1 |
| 20260505224824 | 50 | 255 | 3.0 | 10.0 | 0.01 | 0.02 | 0.02 | 74 | 998.0 |
| 20260505223924 | 50 | 248 | 4.0 | 12.0 | 0.01 | 0.02 | 0.02 | 75 | 997.9 |
| 20260505223024 | 50 | 250 | 5.0 | 14.0 | 0.01 | 0.02 | 0.02 | 75 | 997.9 |
| 20260505222124 | 49 | 239 | 2.0 | 11.0 | 0.01 | 0.02 | 0.02 | 78 | 997.7 |
| 20260505221224 | 48 | 240 | 2.0 | 9.0 | 0.01 | 0.02 | 0.02 | 80 | 997.8 |
| 20260505220324 | 48 | 239 | 2.0 | 11.0 | 0.01 | 0.02 | 0.02 | 81 | 997.6 |
| 20260505215424 | 47 | 239 | 2.0 | 7.0 | 0.01 | 0.02 | 0.02 | 83 | 997.6 |
| 20260505214524 | 47 | 239 | 2.0 | 9.0 | 0.00 | 0.01 | 0.01 | 83 | 997.6 |
| 20260505213624 | 46 | 235 | 4.0 | 9.0 | 0.00 | 0.01 | 0.01 | 84 | 997.6 |
| 20260505212724 | 46 | 238 | 3.0 | 11.0 | 0.00 | 0.01 | 0.01 | 85 | 997.5 |
| 20260505211824 | 46 | 237 | 2.0 | 7.0 | 0.00 | 0.01 | 0.01 | 87 | 997.4 |
| 20260505210924 | 45 | 222 | 2.0 | 6.0 | 0.00 | 0.01 | 0.01 | 88 | 997.4 |
| 20260505210024 | 45 | 211 | 2.0 | 10.0 | 0.00 | 0.01 | 0.01 | 88 | 997.3 |
| 20260505205124 | 44 | 211 | 3.0 | 10.0 | 0.00 | 0.01 | 0.01 | 89 | 997.3 |
| 20260505204224 | 44 | 198 | 2.0 | 10.0 | 0.00 | 0.01 | 0.01 | 89 | 997.2 |
| 20260505203324 | 44 | 186 | 2.0 | 9.0 | 0.00 | 0.01 | 0.01 | 89 | 997.2 |
| 20260505202424 | 44 | 166 | 1.0 | 5.0 | 0.00 | 0.01 | 0.01 | 90 | 997.0 |
| 20260505195724 | 43 | 222 | 1.0 | 7.0 | 0.00 | 0.01 | 0.01 | 91 | 996.9 |
| 20260505194824 | 43 | 218 | 1.0 | 6.0 | 0.00 | 0.01 | 0.01 | 92 | 996.6 |
| 20260505193924 | 43 | 197 | 1.0 | 4.0 | 0.00 | 0.01 | 0.01 | 93 | 996.5 |
| 20260505193024 | 43 | 0 | 0.0 | 4.0 | 0.00 | 0.01 | 0.01 | 93 | 996.4 |
| 20260505192124 | 42 | 0 | 0.0 | 3.0 | 0.01 | 0.01 | 0.01 | 93 | 996.4 |
| 20260505191224 | 42 | 0 | 0.0 | 3.0 | 0.01 | 0.01 | 0.01 | 92 | 996.3 |
| 20260505190324 | 42 | 0 | 0.0 | 0.0 | 0.01 | 0.01 | 0.01 | 91 | 996.4 |
| 20260505184524 | 42 | 0 | 0.0 | 4.0 | 0.01 | 0.01 | 0.01 | 90 | 996.4 |
| 20260505183624 | 42 | 0 | 0.0 | 0.0 | 0.01 | 0.01 | 0.01 | 89 | 996.4 |
| 20260505182724 | 42 | 0 | 0.0 | 4.0 | 0.01 | 0.01 | 0.01 | 88 | 996.3 |
| 20260505181824 | 42 | 256 | 1.0 | 5.0 | 0.00 | 0.00 | 0.00 | 87 | 996.5 |
| 20260505180924 | 42 | 247 | 1.0 | 6.0 | 0.00 | 0.00 | 0.00 | 86 | 996.4 |
| 20260505180024 | 42 | 228 | 1.0 | 6.0 | 0.00 | 0.00 | 0.00 | 84 | 996.4 |
| 20260505173324 | 42 | 0 | 0.0 | 4.0 | 0.00 | 0.00 | 0.00 | 85 | 996.2 |
| 20260505172424 | 41 | 0 | 0.0 | 5.0 | 0.00 | 0.00 | 0.00 | 87 | 996.2 |
| 20260505171524 | 40 | 139 | 1.0 | 5.0 | 0.00 | 0.00 | 0.00 | 89 | 996.0 |
| 20260505170624 | 39 | 0 | 0.0 | 0.0 | 0.00 | 0.00 | 0.00 | 90 | 996.0 |
| 20260505165724 | 39 | 0 | 0.0 | 3.0 | 0.00 | 0.00 | 0.00 | 90 | 996.0 |
| 20260505164824 | 38 | 0 | 0.0 | 1.0 | 0.00 | 0.00 | 0.00 | 91 | 995.9 |
| 20260505163924 | 38 | 0 | 0.0 | 0.0 | 0.00 | 0.00 | 0.00 | 91 | 995.8 |
| 20260505161224 | 37 | 0 | 0.0 | 0.0 | 0.00 | 0.00 | 0.00 | 93 | 995.7 |
| 20260505152724 | 35 | 0 | 0.0 | 0.0 | 0.00 | 0.00 | 0.00 | 93 | 995.3 |
| 20260505151824 | 35 | 0 | 0.0 | 1.0 | 0.00 | 0.00 | 0.00 | 93 | 995.4 |
| 20260505150924 | 35 | 0 | 0.0 | 0.0 | 0.00 | 0.00 | 0.00 | 93 | 995.6 |
| 20260505140624 | 34 | 0 | 0.0 | 0.0 | 0.00 | 0.00 | 0.00 | 93 | 995.1 |
| 20260505124524 | 35 | 0 | 0.0 | 0.0 | 0.00 | 0.00 | 0.00 | 90 | 995.1 |
| 20260505123624 | 35 | 0 | 0.0 | 0.0 | 0.00 | 0.00 | 0.00 | 90 | 994.8 |
| 20260505122724 | 35 | 0 | 0.0 | 0.0 | 0.00 | 0.00 | 0.00 | 90 | 995.0 |
| 20260505121825 | 36 | 0 | 0.0 | 0.0 | 0.00 | 0.00 | 0.00 | 90 | 995.0 |
| 20260505120025 | 36 | 0 | 0.0 | 2.0 | 0.00 | 0.00 | 0.00 | 90 | 995.0 |
| 20260505115124 | 37 | 0 | 0.0 | 0.0 | 0.00 | 0.00 | 0.00 | 89 | 995.0 |
| 20260505114224 | 37 | 0 | 0.0 | 0.0 | 0.00 | 0.00 | 0.00 | 89 | 995.1 |
| 20260505113324 | 38 | 0 | 0.0 | 0.0 | 0.00 | 0.00 | 0.00 | 89 | 995.2 |
| 20260505110624 | 39 | 0 | 0.0 | 0.0 | 0.00 | 0.00 | 0.00 | 89 | 995.3 |
| 20260505102124 | 39 | 0 | 0.0 | 0.0 | 0.00 | 0.00 | 0.00 | 88 | 995.6 |
| 20260505101224 | 40 | 0 | 0.0 | 0.0 | 0.00 | 0.00 | 0.00 | 88 | 995.5 |
| 20260505100325 | 40 | 0 | 0.0 | 0.0 | 0.00 | 0.00 | 0.00 | 88 | 995.6 |
| 20260505095424 | 39 | 0 | 0.0 | 2.0 | 0.00 | 0.00 | 0.00 | 88 | 995.5 |
| 20260505094525 | 39 | 0 | 0.0 | 3.0 | 0.00 | 0.00 | 0.00 | 88 | 995.7 |
| 20260505093624 | 39 | 0 | 0.0 | 2.0 | 0.00 | 0.00 | 0.00 | 87 | 995.9 |
| 20260505092725 | 40 | 31 | 1.0 | 3.0 | 0.00 | 0.00 | 0.00 | 86 | 996.0 |
| 20260505091824 | 40 | 34 | 1.0 | 3.0 | 0.00 | 0.00 | 0.00 | 86 | 996.3 |
| 20260505090924 | 40 | 0 | 0.0 | 2.0 | 0.00 | 0.00 | 0.00 | 86 | 996.4 |
| 20260505085125 | 41 | 0 | 0.0 | 2.0 | 0.00 | 0.00 | 0.00 | 84 | 996.6 |
| 20260505084225 | 41 | 0 | 0.0 | 0.0 | 0.00 | 0.00 | 0.00 | 84 | 996.7 |
| 20260505082424 | 42 | 0 | 0.0 | 0.0 | 0.00 | 0.00 | 0.00 | 83 | 996.9 |
| 20260505081524 | 42 | 0 | 0.0 | 0.0 | 0.00 | 0.00 | 0.00 | 82 | 996.9 |
| 20260505074824 | 43 | 0 | 0.0 | 1.0 | 0.00 | 0.00 | 0.00 | 80 | 997.1 |
| 20260505073924 | 44 | 0 | 0.0 | 2.0 | 0.00 | 0.00 | 0.00 | 80 | 997.5 |
| 20260505073024 | 44 | 0 | 0.0 | 4.0 | 0.00 | 0.00 | 0.00 | 79 | 997.5 |
| 20260505072124 | 45 | 57 | 1.0 | 5.0 | 0.00 | 0.00 | 0.00 | 77 | 997.5 |
| 20260505071225 | 45 | 57 | 1.0 | 4.0 | 0.00 | 0.00 | 0.00 | 76 | 997.5 |
| 20260505070324 | 46 | 62 | 1.0 | 5.0 | 0.00 | 0.00 | 0.00 | 75 | 997.7 |
| 20260505064524 | 47 | 0 | 0.0 | 1.0 | 0.00 | 0.00 | 0.00 | 71 | 997.8 |
| 20260505063624 | 48 | 71 | 1.0 | 4.0 | 0.00 | 0.00 | 0.00 | 70 | 998.0 |
| 20260505062725 | 49 | 89 | 1.0 | 4.0 | 0.00 | 0.00 | 0.00 | 69 | 998.0 |
| 20260505061824 | 50 | 96 | 1.0 | 3.0 | 0.00 | 0.00 | 0.00 | 67 | 998.2 |
| 20260505060924 | 50 | 75 | 3.0 | 9.0 | 0.00 | 0.00 | 0.00 | 67 | 998.2 |
| 20260505060024 | 50 | 69 | 3.0 | 9.0 | 0.00 | 0.00 | 0.00 | 66 | 998.2 |
| 20260505053325 | 51 | 55 | 4.0 | 10.0 | 0.00 | 0.00 | 0.00 | 65 | 998.3 |
| 20260505052425 | 51 | 55 | 4.0 | 12.0 | 0.00 | 0.00 | 0.00 | 65 | 998.5 |